Flag for Germany Weather past 2 weeks in Dachau, Bavaria, Germany

Now
57 °F

Fog.


Feels Like: 57 °F
Forecast: 48 / 69 °F
Wind: 3 mph from Southeast

Location: Munich / Franz Josef Strauss Airport

Current Time: Sep 15, 2014 at 4:37:10 AM

Latest Report: Sep 15, 2014 at 4:20 AM


Visibility: 1 mi

Pressure: 30.04 "Hg

Humidity: 94%

Dew point: 55 °F

Location of DachauLocation

Historic Weather in Dachau — Graph

°F

Dachau temperature yesterday

Maximum temperature yesterday: 63 °F (at 11:50 AM)
Minimum temperature yesterday: 57 °F (at 12:20 AM)
Average temperature yesterday: 60 °F

Past Weeks' High & Low Weather Summary

 TemperatureHumidityPressure
High77 °F (Sep 6, 3:20 PM)100% (Aug 31, 3:20 AM)30.15 "Hg (Aug 31, 3:20 AM)
Low48 °F (Sep 10, 6:20 AM)47% (Sep 7, 3:50 PM)29.92 "Hg (Sep 6, 2:50 PM)
Average59 °F86%30.03 "Hg
* Reported Aug 31 3:20 AM — Sep 15 3:20 AM, Dachau, Weather by CustomWeather, © 2014

Note: Actual official high and low records may vary slightly from our data, if they occured in-between our weather recording intervals... More about our weather records

Advertising

Dachau weather history for previous 24 hours

 ConditionsComfort  
Time TempWeatherWind HumidityBarometerVisibility
3:20 AM
Sep 15
57 °FFog.3 mph94%30.04 "Hg1 mi
2:50 AM57 °FSleet. Overcast.2 mph100%30.04 "Hg1 mi
2:20 AM57 °FPartly cloudy.5 mph100%30.04 "Hg4 mi
1:50 AM57 °FPartly cloudy.3 mph100%30.04 "Hg4 mi
1:20 AM57 °FPartly cloudy.5 mph100%30.04 "Hg4 mi
12:50 AM57 °FPartly cloudy.2 mph100%30.04 "Hg4 mi
12:20 AM57 °FPartly cloudy.1 mph100%30.04 "Hg4 mi
11:50 PM
Sep 14
59 °FPassing clouds.1 mph94%30.04 "Hg4 mi
11:20 PM57 °FPartly cloudy.1 mph100%30.04 "Hg4 mi
10:50 PM57 °FPartly cloudy.2 mph100%30.07 "Hg6 mi
10:20 PM59 °FPassing clouds.1 mph94%30.04 "Hg5 mi
9:50 PM59 °FPassing clouds.1 mph94%30.07 "Hg4 mi
9:20 PM59 °FLow clouds.1 mph94%30.07 "Hg4 mi
8:50 PM59 °FLow clouds.3 mph94%30.07 "Hg5 mi
8:20 PM59 °FLow clouds.5 mph94%30.07 "Hg4 mi
7:50 PM59 °FLow clouds.5 mph94%30.04 "Hg4 mi
7:20 PM61 °FLow clouds.3 mph88%30.04 "Hg4 mi
6:50 PM61 °FPartly sunny.3 mph88%30.04 "HgN/A
6:20 PM61 °FMostly cloudy.5 mph88%30.04 "HgN/A
5:50 PM61 °FPartly sunny.6 mph88%30.04 "HgN/A
5:20 PM61 °FPartly sunny.7 mph88%30.04 "HgN/A
4:50 PM61 °FBroken clouds.5 mph94%30.04 "HgN/A
4:20 PM61 °FDrizzle. Broken clouds.5 mph94%30.07 "HgN/A
3:50 PM61 °FSprinkles. Broken clouds.6 mph88%30.04 "HgN/A
3:20 PM63 °FDrizzle. Broken clouds.6 mph88%30.07 "HgN/A
2:50 PM63 °FDrizzle. Broken clouds.7 mph83%30.07 "HgN/A
2:20 PM63 °FDrizzle. Broken clouds.6 mph83%30.07 "HgN/A
1:50 PM63 °FLight rain. Broken clouds.6 mph83%30.07 "HgN/A
1:20 PM63 °FBroken clouds.7 mph83%30.07 "HgN/A
12:50 PM63 °FSprinkles. Broken clouds.6 mph83%30.07 "HgN/A
12:20 PM63 °FBroken clouds.2 mph83%30.07 "HgN/A
11:50 AM63 °FBroken clouds.3 mph83%30.07 "HgN/A
11:20 AM61 °FBroken clouds.3 mph88%30.07 "HgN/A
10:50 AM61 °FBroken clouds.3 mph88%30.07 "HgN/A
10:20 AM61 °FPartly sunny.5 mph88%30.07 "HgN/A
9:50 AM59 °FPartly sunny.6 mph94%30.07 "Hg6 mi
9:20 AM59 °FPartly sunny.5 mph94%30.07 "Hg5 mi
8:50 AM59 °FPartly sunny.3 mph94%30.07 "Hg4 mi
8:20 AM59 °FPartly sunny.3 mph94%30.07 "Hg4 mi
7:50 AM59 °FDrizzle. Partly sunny.2 mph94%30.07 "Hg2 mi
7:20 AM57 °FPassing clouds.2 mph100%30.07 "Hg2 mi
6:50 AM57 °FPassing clouds.2 mph100%30.07 "Hg2 mi
6:20 AM57 °FPassing clouds.3 mph100%30.07 "Hg4 mi
5:50 AM57 °FPassing clouds.1 mph100%30.09 "Hg4 mi
5:20 AM57 °FPassing clouds.1 mph100%30.09 "Hg4 mi
4:50 AM59 °FPassing clouds.3 mph94%30.09 "Hg4 mi
4:20 AM59 °FPassing clouds.2 mph94%30.09 "Hg4 mi
Weather by CustomWeather, © 2014

See weather overviewHow to use our weather pages